Location: Étavigny
(49.1201°N, 2.9800°E)
Time: 05:38:50
(UTC+00:00)

Cosmos 1269 Rocket - Pass Details

Date: 28 January 2023
Orbit: 771 x 778 km, 74.1° (Epoch: 29 March)

Event Time Altitude Azimuth Distance (km) Brightness Sun altitude
Rises 17:36:54 0° 211° (SSW) 3,237 8.0 -9.8°
Reaches altitude 10° 17:39:17 10° 214° (SW) 2,315 7.3 -10.2°
Maximum altitude 17:44:31 65° 296° (WNW) 854 4.5 -11.0°
Drops below altitude 10° 17:49:47 10° 19° (NNE) 2,336 6.2 -11.8°
Sets 17:52:13 0° 22° (NNE) 3,269 6.9 -12.2°
Enters shadow 17:52:16 - 22° (NNE) 3,293 6.9 -12.2°
